When you browse on this site, cookies collect data to enhance your experience and personalize the content and advertising you see.
Visit our Privacy Policy to learn more. By continuing to use the site, you agree to this use of cookies and data.
  • en France
  • Liste des pays
  • À 7 jours
  • Température de l'eau
  • Carte satellitaire
  • Carte météo
  • Widgets météo
  • user-avatar
    Se connecter

    Météo par heure à Kuny

    Ce jour, 19 Février, Mardi

    Heure Température Précipitation Vent Pression Humidité
    00:00 +3°C° 0 mm 3 m/s 754 mmHg 74%
    01:00 +3°C° 0 mm 3 m/s 754 mmHg 76%
    02:00 +2°C° 0 mm 3 m/s 754 mmHg 77%
    03:00 +2°C° 0 mm 3 m/s 753 mmHg 78%
    04:00 +2°C° 0 mm 3 m/s 753 mmHg 79%
    05:00 +1°C° 0 mm 3 m/s 753 mmHg 79%
    06:00 +1°C° 0 mm 3 m/s 752 mmHg 79%
    07:00 0°C° 0 mm 4 m/s 752 mmHg 79%
    08:00 +1°C° 0 mm 4 m/s 752 mmHg 73%
    09:00 +3°C° 0 mm 5 m/s 752 mmHg 67%
    10:00 +5°C° 0 mm 5 m/s 752 mmHg 61%
    11:00 +7°C° 0 mm 5 m/s 751 mmHg 59%
    12:00 +8°C° 0 mm 6 m/s 751 mmHg 57%
    13:00 +9°C° 0 mm 6 m/s 751 mmHg 55%
    14:00 +9°C° 0 mm 6 m/s 751 mmHg 59%
    15:00 +9°C° 0 mm 5 m/s 751 mmHg 64%
    16:00 +9°C° 0 mm 5 m/s 751 mmHg 68%
    17:00 +8°C° 0.1 mm 5 m/s 751 mmHg 73%
    18:00 +8°C° 0.1 mm 5 m/s 751 mmHg 79%
    19:00 +7°C° 0.1 mm 5 m/s 751 mmHg 85%
    20:00 +7°C° 0 mm 5 m/s 751 mmHg 81%
    21:00 +6°C° 0 mm 5 m/s 751 mmHg 78%
    22:00 +6°C° 0 mm 5 m/s 752 mmHg 75%
    23:00 +5°C° 0 mm 5 m/s 752 mmHg 78%

    Demain, 20 Février, Mercredi

    Heure Température Précipitation Vent Pression Humidité
    00:00 +5°C° 0 mm 5 m/s 752 mmHg 81%
    01:00 +3°C° 0 mm 6 m/s 752 mmHg 84%
    02:00 +3°C° 0 mm 6 m/s 752 mmHg 85%
    03:00 +3°C° 0 mm 6 m/s 752 mmHg 86%
    04:00 +2°C° 0 mm 6 m/s 752 mmHg 88%
    05:00 +2°C° 0 mm 6 m/s 753 mmHg 87%
    06:00 +2°C° 0 mm 6 m/s 753 mmHg 87%
    07:00 +2°C° 0 mm 6 m/s 753 mmHg 87%
    08:00 +3°C° 0 mm 7 m/s 754 mmHg 82%
    09:00 +3°C° 0 mm 7 m/s 754 mmHg 77%
    10:00 +4°C° 0 mm 8 m/s 755 mmHg 72%
    11:00 +4°C° 0.1 mm 8 m/s 755 mmHg 71%
    12:00 +4°C° 0.1 mm 8 m/s 755 mmHg 69%
    13:00 +5°C° 0.1 mm 8 m/s 755 mmHg 68%
    14:00 +5°C° 0 mm 7 m/s 755 mmHg 68%
    15:00 +4°C° 0 mm 7 m/s 756 mmHg 68%
    16:00 +4°C° 0 mm 7 m/s 756 mmHg 68%
    17:00 +4°C° 0.1 mm 6 m/s 756 mmHg 72%
    18:00 +5°C° 0.1 mm 5 m/s 757 mmHg 76%
    19:00 +5°C° 0.1 mm 5 m/s 757 mmHg 79%
    20:00 +5°C° 0 mm 4 m/s 757 mmHg 80%
    21:00 +5°C° 0 mm 4 m/s 757 mmHg 81%
    22:00 +5°C° 0 mm 4 m/s 757 mmHg 81%
    23:00 +4°C° 0 mm 4 m/s 757 mmHg 83%

    Après-demain, 21 Février, Jeudi

    Heure Température Précipitation Vent Pression Humidité
    00:00 +4°C° 0 mm 4 m/s 757 mmHg 85%
    01:00 +4°C° 0 mm 4 m/s 757 mmHg 87%
    02:00 +4°C° 0.1 mm 4 m/s 757 mmHg 88%
    03:00 +4°C° 0.1 mm 4 m/s 757 mmHg 88%
    04:00 +4°C° 0.1 mm 4 m/s 757 mmHg 89%
    05:00 +3°C° 0.3 mm 5 m/s 757 mmHg 88%
    06:00 +3°C° 0.3 mm 5 m/s 757 mmHg 88%
    07:00 +3°C° 0.3 mm 5 m/s 757 mmHg 87%
    08:00 +3°C° 0.6 mm 5 m/s 756 mmHg 88%
    09:00 +3°C° 0.6 mm 6 m/s 756 mmHg 88%
    10:00 +4°C° 0.6 mm 6 m/s 756 mmHg 88%
    11:00 +4°C° 0.8 mm 6 m/s 756 mmHg 88%
    12:00 +4°C° 0.8 mm 6 m/s 756 mmHg 88%
    13:00 +4°C° 0.8 mm 6 m/s 756 mmHg 89%
    14:00 +4°C° 0.7 mm 6 m/s 756 mmHg 89%
    15:00 +4°C° 0.7 mm 6 m/s 756 mmHg 89%
    16:00 +4°C° 0.7 mm 6 m/s 755 mmHg 88%
    17:00 +5°C° 0.2 mm 5 m/s 756 mmHg 90%
    18:00 +5°C° 0.2 mm 5 m/s 756 mmHg 91%
    19:00 +5°C° 0.2 mm 5 m/s 756 mmHg 92%
    20:00 +5°C° 0.4 mm 5 m/s 756 mmHg 92%
    21:00 +6°C° 0.4 mm 5 m/s 756 mmHg 92%
    22:00 +6°C° 0.4 mm 5 m/s 757 mmHg 92%
    23:00 +6°C° 0.2 mm 5 m/s 757 mmHg 92%

    22 Février, Vendredi

    Heure Température Précipitation Vent Pression Humidité
    00:00 +6°C° 0.2 mm 5 m/s 758 mmHg 92%
    01:00 +4°C° 0.2 mm 6 m/s 758 mmHg 92%
    02:00 +3°C° 0.2 mm 6 m/s 759 mmHg 89%
    03:00 +2°C° 0.2 mm 6 m/s 759 mmHg 86%
    04:00 +1°C° 0.2 mm 6 m/s 760 mmHg 83%
    05:00 -1°C° 0 mm 6 m/s 761 mmHg 80%
    06:00 -2°C° 0 mm 6 m/s 763 mmHg 78%
    07:00 -3°C° 0 mm 7 m/s 764 mmHg 75%
    08:00 -3°C° 0 mm 6 m/s 765 mmHg 69%
    09:00 -3°C° 0 mm 6 m/s 766 mmHg 64%
    10:00 -2°C° 0 mm 5 m/s 767 mmHg 58%
    11:00 -1°C° 0 mm 5 m/s 768 mmHg 55%
    12:00 -1°C° 0 mm 5 m/s 768 mmHg 52%
    13:00 0°C° 0 mm 5 m/s 769 mmHg 48%
    14:00 0°C° 0 mm 5 m/s 769 mmHg 48%
    15:00 -1°C° 0 mm 5 m/s 770 mmHg 47%
    16:00 -1°C° 0 mm 4 m/s 770 mmHg 47%
    17:00 -2°C° 0 mm 4 m/s 771 mmHg 50%
    18:00 -1°C° 0 mm 3 m/s 771 mmHg 54%
    19:00 -2°C° 0 mm 3 m/s 772 mmHg 57%
    20:00 -2°C° 0 mm 3 m/s 772 mmHg 55%
    21:00 -2°C° 0 mm 3 m/s 773 mmHg 54%
    22:00 -2°C° 0 mm 3 m/s 773 mmHg 52%
    23:00 -2°C° 0 mm 2 m/s 773 mmHg 51%

    23 Février, Samedi

    Heure Température Précipitation Vent Pression Humidité
    00:00 0°C° 0 mm 1 m/s 773 mmHg 49%
    01:00 -1°C° 0 mm 1 m/s 773 mmHg 48%
    02:00 -2°C° 0 mm 0 m/s 773 mmHg 47%
    03:00 -2°C° 0 mm 0 m/s 773 mmHg 47%
    04:00 -2°C° 0 mm 0 m/s 773 mmHg 47%
    05:00 -2°C° 0 mm 0 m/s 773 mmHg 47%
    06:00 -1°C° 0 mm 1 m/s 773 mmHg 47%
    07:00 -1°C° 0 mm 1 m/s 773 mmHg 47%
    08:00 0°C° 0 mm 1 m/s 772 mmHg 43%
    09:00 -1°C° 0 mm 2 m/s 772 mmHg 38%
    10:00 0°C° 0 mm 3 m/s 772 mmHg 34%
    11:00 0°C° 0 mm 3 m/s 772 mmHg 34%
    12:00 0°C° 0 mm 3 m/s 771 mmHg 35%
    13:00 0°C° 0 mm 3 m/s 771 mmHg 35%
    14:00 +1°C° 0 mm 3 m/s 771 mmHg 36%
    15:00 +1°C° 0 mm 3 m/s 770 mmHg 37%
    16:00 +2°C° 0 mm 2 m/s 769 mmHg 38%
    17:00 +2°C° 0 mm 2 m/s 769 mmHg 41%
    18:00 +2°C° 0 mm 2 m/s 769 mmHg 44%
    19:00 +1°C° 0 mm 2 m/s 769 mmHg 46%
    20:00 +1°C° 0 mm 2 m/s 769 mmHg 48%
    21:00 +1°C° 0 mm 2 m/s 769 mmHg 49%
    22:00 +1°C° 0 mm 2 m/s 768 mmHg 50%
    23:00 +1°C° 0 mm 2 m/s 769 mmHg 56%

    24 Février, Dimanche

    Heure Température Précipitation Vent Pression Humidité
    00:00 -1°C° 0 mm 2 m/s 769 mmHg 61%
    01:00 +1°C° 0 mm 1 m/s 769 mmHg 66%
    02:00 +1°C° 0 mm 1 m/s 769 mmHg 71%
    03:00 -1°C° 0 mm 2 m/s 769 mmHg 75%
    04:00 +1°C° 0 mm 2 m/s 769 mmHg 80%
    05:00 +1°C° 0 mm 2 m/s 769 mmHg 82%
    06:00 +2°C° 0 mm 1 m/s 769 mmHg 85%
    07:00 +2°C° 0 mm 1 m/s 769 mmHg 87%
    08:00 +3°C° 0 mm 1 m/s 769 mmHg 87%
    09:00 +3°C° 0 mm 1 m/s 769 mmHg 86%
    10:00 +4°C° 0 mm 1 m/s 770 mmHg 86%
    11:00 +4°C° 0 mm 1 m/s 770 mmHg 83%
    12:00 +5°C° 0 mm 1 m/s 769 mmHg 81%
    13:00 +6°C° 0 mm 1 m/s 769 mmHg 78%
    14:00 +6°C° 0 mm 1 m/s 769 mmHg 79%
    15:00 +5°C° 0 mm 2 m/s 769 mmHg 81%
    16:00 +5°C° 0 mm 2 m/s 768 mmHg 82%
    17:00 +4°C° 0 mm 2 m/s 768 mmHg 85%
    18:00 +3°C° 0 mm 2 m/s 768 mmHg 88%
    19:00 +3°C° 0 mm 2 m/s 768 mmHg 91%
    20:00 +3°C° 0 mm 2 m/s 768 mmHg 92%
    21:00 +3°C° 0 mm 2 m/s 767 mmHg 92%
    22:00 +3°C° 0 mm 2 m/s 767 mmHg 93%
    23:00 +2°C° 0 mm 3 m/s 767 mmHg 93%
    Voir plus